Location: Recife
(8.0585°S, 34.8848°W)
Time: 13:00:12
(UTC-03:00)

Vanguard 2 - Pass Details

Date: 19 April 2026
Orbit: 553 x 2895 km, 32.9° (Epoch: 13 May)

Event Time Altitude Azimuth Distance (km) Brightness Sun altitude
Exits shadow 00:37:52 15° 134° (SE) 4,823 11.6 -70.3°
Drops below altitude 10° 00:40:21 10° 126° (SE) 5,125 11.8 -69.7°
Sets 00:44:56 0° 114° (ESE) 5,822 12.3 -68.5°
